This is the latest recevied weather packets stored in our database for station/object K5VP. If no packets are shown the sender has not sent any weather packets the latest 10 day(s).
| Time | Temp. | Humidity | Pressure | Rain* | Wind** | Luminosity | Snow |
|---|---|---|---|---|---|---|---|
| 1777565741 | 15.56° C | 44% | 1019.4 hPa | 0 mm | - | - | - |
| 1777565440 | 15.56° C | 43% | 1019.4 hPa | 0 mm | - | - | - |
| 1777565147 | 15.56° C | 42% | 1019.2 hPa | 0 mm | - | - | - |
| 1777564839 | 15.56° C | 40% | 1019.3 hPa | 0 mm | - | - | - |
| 1777564543 | 15.56° C | 41% | 1019.3 hPa | 0 mm | - | - | - |
| 1777564234 | 15.56° C | 44% | 1019.4 hPa | 0 mm | - | - | - |
| 1777563935 | 15.56° C | 41% | 1019.4 hPa | 0 mm | - | - | - |
| 1777563625 | 15.56° C | 43% | 1019.2 hPa | 0 mm | - | - | - |
| 1777563308 | 15.56° C | 43% | 1019.4 hPa | 0 mm | - | - | - |
| 1777562996 | 15.56° C | 43% | 1019.6 hPa | 0 mm | - | - | - |
| 1777562675 | 15° C | 43% | 1019.5 hPa | 0 mm | - | - | - |
| 1777562372 | 15° C | 43% | 1019.6 hPa | 0 mm | - | - | - |
| 1777562054 | 15° C | 44% | 1019.5 hPa | 0 mm | - | - | - |
| 1777561750 | 15° C | 44% | 1019.5 hPa | 0 mm | - | - | - |
| 1777561434 | 15° C | 44% | 1019.3 hPa | 0 mm | - | - | - |
| 1777561135 | 14.44° C | 47% | 1019.2 hPa | 0 mm | - | - | - |
| 1777560830 | 14.44° C | 48% | 1019.2 hPa | 0 mm | - | - | - |
| 1777560521 | 14.44° C | 47% | 1019.1 hPa | 0 mm | - | - | - |
| 1777560205 | 14.44° C | 48% | 1019.1 hPa | 0 mm | - | - | - |
| 1777559885 | 14.44° C | 48% | 1019.2 hPa | 0 mm | - | - | - |
| 1777559589 | 14.44° C | 51% | 1019.2 hPa | 0 mm | - | - | - |
| 1777559292 | 14.44° C | 51% | 1019.2 hPa | 0 mm | - | - | - |
| 1777558979 | 13.89° C | 52% | 1019.1 hPa | 0 mm | - | - | - |
| 1777558684 | 13.89° C | 51% | 1019.2 hPa | 0 mm | - | - | - |
| 1777558383 | 13.89° C | 53% | 1019.2 hPa | 0 mm | - | - | - |
* Rain latest hour (hover to see other rain measurements)
** Current wind speed in m/s (hover to see current wind gust speed)